Home > Weather > Drammen > Past weeks

Flag for Norway Weather for the Past 2 Weeks in Drammen, Norway

Now
45 °F

Passing clouds.


Feels Like: 37 °F
Forecast: 30 / 60 °F
Wind: 17 mph from South

Location: Statfjord B

Current Time: May 3, 2016 at 8:02:26 AM

Latest Report: May 3, 2016 at 6:50 AM


Visibility: N/A

Pressure: 29.74 "Hg

Humidity: 93%

Dew Point: 43 °F

Location of DrammenLocation

Historic Weather in Drammen — Graph

°F

Drammen Temperature Yesterday

Maximum temperature yesterday: 48 °F (at 8:20 AM)
Minimum temperature yesterday: 45 °F (at 2:50 PM)
Average temperature yesterday: 46 °F

High & Low Weather Summary for the Past Weeks

 TemperatureHumidityPressure
High48 °F (Apr 28, 10:50 AM)100% (Apr 20, 2:20 PM)30.33 "Hg (Apr 20, 2:20 PM)
Low30 °F (Apr 23, 6:20 AM)50% (Apr 28, 10:50 AM)29.27 "Hg (Apr 18, 10:20 AM)
Average42 °F76%29.89 "Hg
* Reported Apr 18 6:20 AM — May 3 6:20 AM, Drammen, Weather by CustomWeather, © 2016

Note: Actual official high and low records may vary slightly from our data, if they occured in-between our weather recording intervals... More about our weather records

Advertising

Drammen Weather History for the Previous 24 Hours

Scroll right to see more
 ConditionsComfort  
Time TempWeatherWind HumidityBarometerVisibility
6:20 AM
Tue, May 3
45 °FQuite cool.18 mph87%29.74 "HgN/A
5:50 AM45 °FQuite cool.21 mph87%29.74 "HgN/A
4:50 AM45 °FPassing clouds.20 mph87%29.74 "HgN/A
4:20 AM45 °FQuite cool.20 mph87%29.74 "HgN/A
3:20 AM45 °FQuite cool.22 mph87%29.71 "HgN/A
2:50 AM45 °FQuite cool.22 mph87%29.71 "HgN/A
2:20 AM45 °FQuite cool.22 mph93%29.71 "HgN/A
1:50 AM45 °FQuite cool.21 mph93%29.71 "HgN/A
12:50 AM45 °FQuite cool.22 mph87%29.71 "HgN/A
11:50 PM
Mon, May 2
45 °FPassing clouds.22 mph87%29.71 "HgN/A
11:20 PM45 °FPassing clouds.23 mph93%29.68 "HgN/A
10:50 PM46 °FPassing clouds.23 mph93%29.68 "HgN/A
10:20 PM45 °FPassing clouds.23 mph100%29.68 "HgN/A
9:50 PM46 °FScattered clouds.21 mph93%29.68 "HgN/A
9:20 PM46 °FCool.21 mph93%29.68 "HgN/A
8:50 PM46 °FCool.24 mph87%29.68 "HgN/A
8:20 PM46 °FPassing clouds.24 mph93%29.65 "HgN/A
7:50 PM46 °FPassing clouds.24 mph93%29.65 "HgN/A
7:20 PM46 °FPartly sunny.25 mph93%29.65 "HgN/A
6:50 PM46 °FPartly sunny.24 mph93%29.65 "HgN/A
6:20 PM46 °FPassing clouds.23 mph87%29.65 "HgN/A
5:50 PM46 °FScattered clouds.22 mph87%29.65 "HgN/A
5:20 PM45 °FBroken clouds.22 mph93%29.65 "HgN/A
4:50 PM45 °FLight rain. Partly sunny.22 mph93%29.65 "HgN/A
4:20 PM45 °FLight rain. Overcast.21 mph93%29.65 "HgN/A
3:50 PM45 °FLight rain. Overcast.21 mph93%29.62 "HgN/A
3:20 PM45 °FLight rain. Cloudy.21 mph93%29.62 "HgN/A
2:50 PM45 °FLight rain. Partly sunny.24 mph93%29.59 "Hg4 mi
2:20 PM46 °FLight rain. Overcast.28 mph93%29.59 "Hg4 mi
1:50 PM46 °FLight rain. Fog.35 mph100%29.56 "Hg2 mi
1:20 PM46 °FLight rain. Fog.44 mph100%29.53 "Hg2 mi
12:50 PM48 °FLight rain. Partly sunny.47 mph94%29.53 "Hg3 mi
12:20 PM48 °FSprinkles. Fog.54 mph94%29.53 "Hg2 mi
11:50 AM48 °FDrizzle. Low clouds.58 mph94%29.53 "Hg4 mi
11:20 AM48 °FLight rain. Low clouds.58 mph94%29.53 "Hg4 mi
10:50 AM48 °FLight rain. Low clouds.61 mph94%29.53 "Hg4 mi
10:20 AM48 °FLight rain. Partly sunny.59 mph94%29.53 "Hg5 mi
9:50 AM48 °FLight rain. Low clouds.55 mph94%29.53 "Hg4 mi
9:20 AM48 °FLow clouds.53 mph94%29.56 "Hg4 mi
8:50 AM48 °FLow clouds.54 mph94%29.59 "Hg4 mi
8:20 AM48 °FLow clouds.55 mph94%29.59 "Hg6 mi
Weather by CustomWeather, © 2016

See weather overviewHow to use our weather pages